Location: 5810 Zion Rd, Cleves, OH 45002, USA
(39.1922°N, 84.7113°W)
Time: 09:40:17
(UTC-05:00)

Vanguard 3 - Pass Details

Date: 15 December 2019
Orbit: 507 x 3263 km, 33.4° (Epoch: 25 January)

Event Time Altitude Azimuth Distance (km) Brightness Sun altitude
Rises 09:59:24 0° 267° (W) 3,902 10.3 17.8°
Reaches altitude 10° 10:01:38 10° 263° (W) 3,206 10.0 18.1°
Maximum altitude 10:09:52 61° 185° (S) 2,003 9.8 19.0°
Drops below altitude 10° 10:24:33 10° 111° (ESE) 5,476 12.3 20.6°
Sets 10:29:40 0° 109° (ESE) 6,809 12.6 21.1°
